GW2364 Weather Reports


Display with metric or nautical units.
time (UTC)temp
F
wind
direction
speed
MPH
gust
MPH
rain 1hr
in
rain 24hr
in
rain mn
in
humidity
%
barometer
mb
20260505120003 69 178 5.0 11.0 0.00 0.00 0.00 91 1005.6
20260505114604 69 213 2.0 6.0 0.00 0.00 0.00 90 1005.6
20260505113115 69 251 2.0 9.0 0.00 0.00 0.00 90 1005.4
20260505113002 69 213 2.0 9.0 0.00 0.00 0.00 90 1005.5
20260505111602 69 248 2.0 10.0 0.00 0.00 0.00 91 1005.5
20260505101600 69 228 3.0 9.0 0.00 0.00 0.00 90 1005.9
20260505100005 69 213 4.0 11.0 0.00 0.00 0.00 89 1005.8
20260505094600 69 198 3.0 9.0 0.00 0.00 0.00 89 1005.8
20260505093106 69 215 3.0 8.0 0.00 0.00 0.00 89 1006.0
20260505091600 69 232 4.0 9.0 0.00 0.00 0.00 88 1005.9
20260505090059 69 288 4.0 10.0 0.00 0.00 0.00 88 1006.2
20260505090001 69 256 4.0 12.0 0.00 0.00 0.00 88 1006.2
20260505084559 69 248 3.0 10.0 0.00 0.00 0.00 88 1006.1
20260505083104 69 302 3.0 10.0 0.00 0.00 0.00 88 1006.2
20260505083002 69 9 4.0 10.0 0.00 0.00 0.00 89 1006.2
20260505081600 69 236 3.0 13.0 0.00 0.00 0.00 89 1006.6
20260505080112 70 255 4.0 11.0 0.00 0.00 0.00 88 1006.7
20260505080002 70 213 4.0 11.0 0.00 0.00 0.00 88 1006.7
20260505074600 70 259 3.0 9.0 0.00 0.00 0.00 88 1006.8
20260505073107 70 273 4.0 10.0 0.00 0.00 0.00 87 1006.8
20260505071601 70 230 2.0 10.0 0.00 0.00 0.00 87 1007.0
20260505070100 70 232 4.0 11.0 0.00 0.00 0.00 87 1007.2
20260505070001 70 277 5.0 11.0 0.00 0.00 0.00 87 1007.1
20260505064603 70 283 3.0 10.0 0.00 0.00 0.00 87 1007.4
20260505063103 70 223 3.0 12.0 0.00 0.00 0.00 87 1007.5
20260505061600 70 13 3.0 11.0 0.00 0.00 0.00 87 1007.9
20260505060101 70 237 1.0 10.0 0.00 0.00 0.00 86 1007.8
20260505060005 70 163 2.0 10.0 0.00 0.00 0.00 86 1007.8
20260505054502 70 318 2.0 9.0 0.00 0.00 0.00 86 1007.8
20260505053004 71 194 2.0 10.0 0.00 0.00 0.00 86 1007.8
20260505051502 71 239 2.0 13.0 0.00 0.00 0.00 85 1007.9
20260505041503 71 16 1.0 10.0 0.00 0.00 0.00 84 1007.7
20260505040005 72 108 1.0 5.0 0.00 0.00 0.00 83 1007.7
20260505034502 72 53 0.0 4.0 0.00 0.00 0.00 83 1007.8
20260505033002 72 87 1.0 7.0 0.00 0.00 0.00 82 1007.8
20260505031502 73 167 1.0 3.0 0.00 0.00 0.00 81 1007.8
20260505030005 73 149 0.0 3.0 0.00 0.00 0.00 80 1007.8
20260505024502 73 167 1.0 7.0 0.00 0.00 0.00 80 1007.7
20260505023002 74 226 1.0 4.0 0.00 0.00 0.00 79 1007.6
20260505021502 74 161 1.0 5.0 0.00 0.00 0.00 78 1007.5
20260505020004 74 58 1.0 10.0 0.00 0.00 0.00 76 1007.4
20260505014504 75 126 0.0 5.0 0.00 0.00 0.00 74 1007.3
20260505013001 76 187 2.0 6.0 0.00 0.00 0.00 72 1007.3
20260505011502 76 215 1.0 7.0 0.00 0.00 0.00 71 1007.3
20260505010010 77 221 3.0 8.0 0.00 0.00 0.00 69 1007.1
20260505004503 78 275 2.0 12.0 0.00 0.00 0.00 67 1007.1
20260505003002 79 321 2.0 7.0 0.00 0.00 0.00 65 1007.0
20260505001502 79 149 3.0 10.0 0.00 0.00 0.00 64 1006.8
20260505000003 79 170 3.0 14.0 0.00 0.00 0.00 63 1007.0
20260504234502 81 180 6.0 17.0 0.00 0.00 0.00 61 1007.1
20260504233002 81 237 4.0 14.0 0.00 0.00 0.00 61 1007.4
20260504231501 81 247 2.0 14.0 0.00 0.00 0.00 61 1007.4
20260504230004 82 257 5.0 11.0 0.00 0.00 0.00 59 1007.5
20260504224507 83 210 4.0 12.0 0.00 0.00 0.00 58 1007.9
20260504223002 83 229 3.0 15.0 0.00 0.00 0.00 59 1008.0
20260504221501 82 227 2.0 10.0 0.00 0.00 0.00 60 1008.2
20260504220003 82 224 3.0 8.0 0.00 0.00 0.00 59 1008.2
20260504214503 83 284 2.0 12.0 0.00 0.00 0.00 59 1008.2
20260504213002 83 246 3.0 10.0 0.00 0.00 0.00 59 1008.4
20260504211501 82 286 2.0 10.0 0.00 0.00 0.00 59 1008.7
20260504210010 83 221 5.0 15.0 0.00 0.00 0.00 58 1009.1
20260504204501 82 258 2.0 17.0 0.00 0.00 0.00 60 1009.3
20260504203001 83 223 3.0 10.0 0.00 0.00 0.00 58 1009.5
20260504201501 82 261 4.0 12.0 0.00 0.00 0.00 60 1009.9
20260504200004 82 196 4.0 10.0 0.00 0.00 0.00 60 1010.1
20260504194501 80 328 2.0 13.0 0.00 0.00 0.00 63 1010.4
20260504193002 81 229 4.0 16.0 0.00 0.00 0.00 60 1010.6
20260504191501 80 265 4.0 12.0 0.00 0.00 0.00 62 1010.9
20260504190002 80 225 4.0 12.0 0.00 0.00 0.00 63 1011.0
20260504184501 80 207 7.0 16.0 0.00 0.00 0.00 60 1011.0
20260504183001 79 241 4.0 14.0 0.00 0.00 0.00 63 1011.2
20260504181501 79 251 5.0 13.0 0.00 0.00 0.00 63 1011.7
20260504180004 77 277 4.0 13.0 0.00 0.00 0.00 66 1011.7
20260504174503 78 242 4.0 12.0 0.00 0.00 0.00 63 1011.9
20260504173004 76 252 3.0 13.0 0.00 0.00 0.00 67 1012.4
20260504171501 74 223 4.0 14.0 0.00 0.00 0.00 70 1012.6